FW9116 Weather Reports


Display with metric or nautical units.
time (UTC)temp
F
wind
direction
speed
MPH
gust
MPH
rain 1hr
in
rain 24hr
in
rain mn
in
humidity
%
barometer
mb
20260901003554 84 244 3.0 8.0 0.00 0.00 0.00 40 1006.8
20260901003107 84 221 2.0 7.0 0.00 0.00 0.00 40 1006.9
20260901002554 84 268 1.0 9.0 0.00 0.00 0.00 41 1006.9
20260901002054 84 183 3.0 9.0 0.00 0.00 0.00 41 1006.9
20260901001558 84 207 3.0 9.0 0.00 0.00 0.00 41 1006.9
20260901001054 84 173 3.0 9.0 0.00 0.00 0.00 41 1006.9
20260901000554 84 194 3.0 9.0 0.00 0.00 0.00 41 1007.0
20260901000103 84 169 2.0 8.0 0.00 0.00 0.00 41 1006.9
20260831235556 84 254 2.0 8.0 0.00 0.00 0.00 41 1006.9
20260831235056 85 252 3.0 8.0 0.00 0.00 0.00 41 1007.0
20260831234601 85 236 2.0 6.0 0.00 0.00 0.00 40 1006.9
20260831234056 85 173 2.0 7.0 0.00 0.00 0.00 40 1007.0
20260831233554 85 198 3.0 8.0 0.00 0.00 0.00 40 1007.0
20260831233109 86 192 2.0 9.0 0.00 0.00 0.00 39 1007.0
20260831232554 86 0 4.0 9.0 0.00 0.00 0.00 40 1007.1
20260831232054 86 157 4.0 8.0 0.00 0.00 0.00 39 1007.0
20260831231613 87 128 1.0 7.0 0.00 0.00 0.00 39 1007.0
20260831231056 87 274 1.0 6.0 0.00 0.00 0.00 38 1006.9
20260831230554 87 186 1.0 5.0 0.00 0.00 0.00 37 1007.0
20260831230101 87 48 0.0 8.0 0.00 0.00 0.00 38 1007.0
20260831225554 86 217 3.0 8.0 0.00 0.00 0.00 38 1007.1
20260831225054 86 264 2.0 5.0 0.00 0.00 0.00 37 1007.1
20260831224623 86 153 1.0 6.0 0.00 0.00 0.00 37 1007.2
20260831224054 86 298 2.0 6.0 0.00 0.00 0.00 37 1007.3
20260831223555 86 175 1.0 6.0 0.00 0.00 0.00 36 1007.4
20260831223107 85 0 1.0 4.0 0.00 0.00 0.00 37 1007.3
20260831222553 85 61 1.0 6.0 0.00 0.00 0.00 36 1007.3
20260831222055 85 196 1.0 6.0 0.00 0.00 0.00 37 1007.4
20260831221604 84 116 3.0 6.0 0.00 0.00 0.00 38 1007.4
20260831221054 85 192 2.0 5.0 0.00 0.00 0.00 38 1007.5
20260831220557 84 181 1.0 7.0 0.00 0.00 0.00 40 1007.4
20260831220103 84 118 2.0 7.0 0.00 0.00 0.00 39 1007.4
20260831215555 84 336 3.0 7.0 0.00 0.00 0.00 38 1007.5
20260831215055 84 346 2.0 7.0 0.00 0.00 0.00 39 1007.5
20260831214601 84 0 1.0 3.0 0.00 0.00 0.00 39 1007.6
20260831214054 84 0 0.0 4.0 0.00 0.00 0.00 39 1007.5
20260831213554 83 86 1.0 6.0 0.00 0.00 0.00 39 1007.6
20260831213100 83 0 2.0 6.0 0.00 0.00 0.00 39 1007.8
20260831212554 84 244 3.0 5.0 0.00 0.00 0.00 38 1007.9
20260831212054 84 134 1.0 4.0 0.00 0.00 0.00 39 1007.9
20260831211609 84 346 0.0 4.0 0.00 0.00 0.00 40 1008.0
20260831211055 83 244 1.0 4.0 0.00 0.00 0.00 41 1008.1
20260831210554 82 275 0.0 4.0 0.00 0.00 0.00 43 1008.1
20260831210100 82 326 0.0 6.0 0.00 0.00 0.00 43 1008.2
20260831205556 81 5 1.0 6.0 0.00 0.00 0.00 44 1008.2
20260831205055 80 0 2.0 6.0 0.00 0.00 0.00 45 1008.2
20260831204601 80 11 1.0 8.0 0.00 0.00 0.00 46 1008.4
20260831204054 79 309 2.0 8.0 0.00 0.00 0.00 46 1008.3
20260831203557 80 265 3.0 8.0 0.00 0.00 0.00 45 1008.4
20260831203102 80 236 1.0 7.0 0.00 0.00 0.00 45 1008.5
20260831202554 80 319 2.0 7.0 0.00 0.00 0.00 45 1008.5
20260831202057 80 309 2.0 7.0 0.00 0.00 0.00 45 1008.6
20260831201610 80 34 1.0 4.0 0.00 0.00 0.00 45 1008.7
20260831201055 80 0 0.0 5.0 0.00 0.00 0.00 45 1008.7
20260831200554 79 275 1.0 5.0 0.00 0.00 0.00 47 1008.7
20260831200107 79 39 2.0 5.0 0.00 0.00 0.00 47 1008.7
20260831195556 79 0 1.0 4.0 0.00 0.00 0.00 47 1008.8
20260831195054 78 74 1.0 6.0 0.00 0.00 0.00 49 1008.8
20260831194639 76 306 2.0 6.0 0.00 0.00 0.00 50 1009.0
20260831194054 76 296 2.0 7.0 0.00 0.00 0.00 51 1009.0
20260831193556 76 299 2.0 7.0 0.00 0.00 0.00 51 1009.0
20260831193101 77 311 3.0 7.0 0.00 0.00 0.00 50 1009.1
20260831192556 77 350 1.0 6.0 0.00 0.00 0.00 50 1009.1
20260831192057 77 0 2.0 6.0 0.00 0.00 0.00 50 1009.1
20260831191608 77 255 1.0 4.0 0.00 0.00 0.00 51 1009.2
20260831191059 77 302 1.0 4.0 0.00 0.00 0.00 51 1009.2
20260831190557 76 0 1.0 4.0 0.00 0.00 0.00 52 1009.3
20260831190109 75 55 1.0 4.0 0.00 0.00 0.00 52 1009.3
20260831185555 75 313 1.0 5.0 0.00 0.00 0.00 54 1009.5
20260831185056 74 349 2.0 5.0 0.00 0.00 0.00 55 1009.5
20260831184602 74 17 2.0 4.0 0.00 0.00 0.00 55 1009.5
20260831184056 74 324 1.0 5.0 0.00 0.00 0.00 55 1009.6
20260831183556 74 275 2.0 6.0 0.00 0.00 0.00 55 1009.7
20260831183059 74 0 2.0 6.0 0.00 0.00 0.00 55 1009.9
20260831182556 73 35 0.0 4.0 0.00 0.00 0.00 56 1009.8
20260831182056 73 294 1.0 4.0 0.00 0.00 0.00 58 1009.9
20260831181600 72 173 0.0 5.0 0.00 0.00 0.00 58 1010.0
20260831181057 71 0 2.0 5.0 0.00 0.00 0.00 59 1009.9
20260831180557 71 100 2.0 5.0 0.00 0.00 0.00 59 1009.9
20260831180106 70 0 0.0 6.0 0.00 0.00 0.00 60 1010.0
20260831175600 70 196 1.0 6.0 0.00 0.00 0.00 61 1010.2
20260831175057 70 360 2.0 6.0 0.00 0.00 0.00 60 1010.3
20260831174605 70 122 1.0 5.0 0.00 0.00 0.00 62 1010.2
20260831174100 69 81 1.0 6.0 0.00 0.00 0.00 63 1010.3
20260831173601 69 285 2.0 6.0 0.00 0.00 0.00 63 1010.4
20260831173102 69 42 0.0 5.0 0.00 0.00 0.00 64 1010.3
20260831172554 68 43 2.0 5.0 0.00 0.00 0.00 64 1010.4
20260831172054 68 291 2.0 5.0 0.00 0.00 0.00 66 1010.4
20260831171603 68 263 1.0 5.0 0.00 0.00 0.00 65 1010.5
20260831171059 68 0 1.0 5.0 0.00 0.00 0.00 66 1010.6
20260831170555 67 76 1.0 4.0 0.00 0.00 0.00 66 1010.6
20260831170119 67 117 1.0 4.0 0.00 0.00 0.00 67 1010.6
20260831165557 66 352 1.0 4.0 0.00 0.00 0.00 69 1010.6
20260831165057 66 327 2.0 4.0 0.00 0.00 0.00 69 1010.7
20260831164558 65 28 0.0 6.0 0.00 0.00 0.00 71 1010.7
20260831164055 65 286 2.0 6.0 0.00 0.00 0.00 71 1010.7
20260831163557 65 53 1.0 5.0 0.00 0.00 0.00 72 1010.8
20260831163103 64 344 1.0 5.0 0.00 0.00 0.00 74 1010.7
20260831162555 64 296 2.0 6.0 0.00 0.00 0.00 74 1010.8
20260831162100 64 35 2.0 6.0 0.00 0.00 0.00 74 1010.8
20260831161604 64 18 2.0 6.0 0.00 0.00 0.00 75 1010.9
20260831161054 63 32 1.0 5.0 0.00 0.00 0.00 76 1011.0
20260831160556 63 22 1.0 5.0 0.00 0.00 0.00 77 1011.1
20260831155557 62 71 3.0 6.0 0.00 0.00 0.00 79 1011.1
20260831155055 61 46 1.0 5.0 0.00 0.00 0.00 80 1011.1
20260831154626 61 5 0.0 6.0 0.00 0.00 0.00 82 1011.1
20260831154055 60 312 1.0 7.0 0.00 0.00 0.00 82 1011.2
20260831153556 60 112 3.0 7.0 0.00 0.00 0.00 82 1011.1
20260831153115 59 9 1.0 5.0 0.00 0.00 0.00 84 1011.1
20260831152558 59 32 1.0 7.0 0.00 0.00 0.00 84 1011.2
20260831152056 58 35 2.0 7.0 0.00 0.00 0.00 85 1011.2
20260831151605 58 38 2.0 6.0 0.00 0.00 0.00 85 1011.2
20260831151055 58 28 2.0 6.0 0.00 0.00 0.00 86 1011.4
20260831150559 57 40 2.0 6.0 0.00 0.00 0.00 87 1011.4
20260831150101 57 32 1.0 5.0 0.00 0.00 0.00 87 1011.3
20260831145558 56 49 2.0 4.0 0.00 0.00 0.00 88 1011.4
20260831145059 56 5 1.0 4.0 0.00 0.00 0.00 88 1011.4
20260831144653 56 36 2.0 4.0 0.00 0.00 0.00 88 1011.3
20260831144056 56 72 1.0 3.0 0.00 0.00 0.00 89 1011.4
20260831143559 55 67 1.0 3.0 0.00 0.00 0.00 90 1011.4
20260831143106 55 0 0.0 3.0 0.00 0.00 0.00 90 1011.4
20260831142557 55 31 1.0 3.0 0.00 0.00 0.00 90 1011.4
20260831142055 54 20 1.0 3.0 0.00 0.00 0.00 90 1011.3
20260831141608 54 29 1.0 3.0 0.00 0.00 0.00 90 1011.3
20260831141056 54 19 0.0 1.0 0.00 0.00 0.00 89 1011.4
20260831140556 54 0 0.0 1.0 0.00 0.00 0.00 88 1011.3
20260831135558 54 0 0.0 0.0 0.00 0.00 0.00 88 1011.4
20260831135055 54 0 0.0 0.0 0.00 0.00 0.00 88 1011.5
20260831134605 54 0 0.0 0.0 0.00 0.00 0.00 88 1011.4
20260831134055 54 0 0.0 0.0 0.00 0.00 0.00 88 1011.5
20260831133557 54 0 0.0 0.0 0.00 0.00 0.00 88 1011.5
20260831133109 54 0 0.0 1.0 0.00 0.00 0.00 87 1011.5
20260831132555 54 0 0.0 1.0 0.00 0.00 0.00 87 1011.4
20260831132056 55 0 0.0 1.0 0.00 0.00 0.00 87 1011.4
20260831131607 55 0 0.0 0.0 0.00 0.00 0.00 87 1011.6
20260831131056 55 0 0.0 0.0 0.00 0.00 0.00 87 1011.5
20260831130555 55 0 0.0 0.0 0.00 0.00 0.00 87 1011.5
20260831130110 55 0 0.0 0.0 0.00 0.00 0.00 87 1011.7
20260831125557 55 0 0.0 1.0 0.00 0.00 0.00 88 1011.6
20260831125057 55 0 0.0 2.0 0.00 0.00 0.00 88 1011.6
20260831124608 56 0 0.0 2.0 0.00 0.00 0.00 87 1011.7
20260831124055 56 0 0.0 2.0 0.00 0.00 0.00 87 1011.7
20260831123556 56 26 0.0 2.0 0.00 0.00 0.00 87 1011.7
20260831123100 56 0 0.0 3.0 0.00 0.00 0.00 87 1011.7
20260831122554 56 0 0.0 3.0 0.00 0.00 0.00 87 1011.7
20260831122058 56 25 1.0 3.0 0.00 0.00 0.00 87 1011.8
20260831121559 56 60 1.0 3.0 0.00 0.00 0.00 87 1012.0
20260831121056 56 26 1.0 3.0 0.00 0.00 0.00 87 1011.9
20260831120600 56 32 0.0 3.0 0.00 0.00 0.00 87 1012.0
20260831120057 56 0 0.0 3.0 0.00 0.00 0.00 87 1011.9
20260831115556 57 24 0.0 2.0 0.00 0.00 0.00 87 1011.9
20260831115056 57 0 0.0 2.0 0.00 0.00 0.00 86 1011.9
20260831114607 57 0 0.0 4.0 0.00 0.00 0.00 86 1011.9
20260831114057 57 0 0.0 4.0 0.00 0.00 0.00 86 1012.1
20260831113557 57 0 0.0 4.0 0.00 0.00 0.00 86 1012.1
20260831113111 57 0 0.0 3.0 0.00 0.00 0.00 86 1012.0
20260831112557 57 0 0.0 3.0 0.00 0.00 0.00 86 1012.1
20260831112055 57 0 0.0 3.0 0.00 0.00 0.00 86 1012.2
20260831111602 57 0 0.0 3.0 0.00 0.00 0.00 85 1012.2
20260831111056 57 0 0.0 3.0 0.00 0.00 0.00 85 1012.2
20260831110554 58 0 0.0 3.0 0.00 0.00 0.00 85 1012.3
20260831110104 58 18 0.0 3.0 0.00 0.00 0.00 85 1012.2
20260831105555 58 0 0.0 4.0 0.00 0.00 0.00 85 1012.3
20260831105055 58 23 1.0 4.0 0.00 0.00 0.00 85 1012.4
20260831104612 58 23 1.0 4.0 0.00 0.00 0.00 85 1012.4
20260831104054 58 28 1.0 7.0 0.00 0.00 0.00 84 1012.3
20260831103554 58 14 2.0 7.0 0.00 0.00 0.00 84 1012.4
20260831103058 58 63 1.0 4.0 0.00 0.00 0.00 84 1012.4
20260831102554 58 21 1.0 4.0 0.00 0.00 0.00 84 1012.5
20260831102055 58 42 1.0 7.0 0.00 0.00 0.00 84 1012.4
20260831101603 58 0 1.0 7.0 0.00 0.00 0.00 83 1012.4
20260831101058 59 32 1.0 5.0 0.00 0.00 0.00 83 1012.5
20260831100557 59 26 1.0 5.0 0.00 0.00 0.00 83 1012.5
20260831100120 59 14 1.0 4.0 0.00 0.00 0.00 83 1012.5
20260831095554 59 17 1.0 5.0 0.00 0.00 0.00 83 1012.5
20260831095054 59 0 1.0 5.0 0.00 0.00 0.00 82 1012.7
20260831094604 59 65 2.0 6.0 0.00 0.00 0.00 82 1012.7
20260831094055 59 45 2.0 6.0 0.00 0.00 0.00 82 1012.8
20260831093559 59 45 1.0 4.0 0.00 0.00 0.00 82 1012.8
20260831093102 59 13 0.0 5.0 0.00 0.00 0.00 82 1012.9
20260831092557 59 27 2.0 5.0 0.00 0.00 0.00 82 1012.9
20260831092056 59 44 2.0 5.0 0.00 0.00 0.00 81 1013.0
20260831091605 60 31 2.0 5.0 0.00 0.00 0.00 81 1013.1
20260831091057 60 14 2.0 9.0 0.00 0.00 0.00 81 1013.0
20260831090555 60 30 2.0 9.0 0.00 0.00 0.00 81 1013.1
20260831085555 60 22 2.0 5.0 0.00 0.00 0.00 81 1013.1
20260831085056 60 0 2.0 5.0 0.00 0.00 0.00 81 1013.2
20260831084637 60 26 2.0 5.0 0.00 0.00 0.00 81 1013.2
20260831084054 60 5 1.0 7.0 0.00 0.00 0.00 81 1013.1
20260831083554 60 22 1.0 7.0 0.00 0.00 0.00 81 1013.3
20260831083101 60 0 0.0 3.0 0.00 0.00 0.00 80 1013.2
20260831082557 60 5 0.0 2.0 0.00 0.00 0.00 80 1013.3
20260831082057 60 0 0.0 4.0 0.00 0.00 0.00 80 1013.3
20260831081601 60 0 0.0 4.0 0.00 0.00 0.00 80 1013.4
20260831081055 60 0 0.0 4.0 0.00 0.00 0.00 79 1013.6
20260831080556 61 12 1.0 4.0 0.00 0.00 0.00 79 1013.7
20260831080125 61 16 1.0 4.0 0.00 0.00 0.00 79 1013.7
20260831075557 61 39 1.0 4.0 0.00 0.00 0.00 79 1013.8
20260831075055 61 27 1.0 4.0 0.00 0.00 0.00 78 1013.9
20260831074607 61 36 1.0 5.0 0.00 0.00 0.00 78 1013.9
20260831074055 61 49 2.0 5.0 0.00 0.00 0.00 78 1013.8
20260831073555 61 53 1.0 4.0 0.00 0.00 0.00 78 1013.9
20260831073104 61 26 1.0 3.0 0.00 0.00 0.00 77 1013.9
20260831072555 61 49 0.0 3.0 0.00 0.00 0.00 77 1013.9
20260831072058 62 0 0.0 4.0 0.00 0.00 0.00 76 1014.0
20260831071616 62 12 0.0 4.0 0.00 0.00 0.00 76 1014.0
20260831071055 62 28 1.0 4.0 0.00 0.00 0.00 76 1014.1
20260831070557 62 28 1.0 5.0 0.00 0.00 0.00 76 1014.1
20260831070104 62 24 1.0 5.0 0.00 0.00 0.00 76 1014.2
20260831065557 62 19 2.0 5.0 0.00 0.00 0.00 75 1014.3
20260831065055 62 27 0.0 4.0 0.00 0.00 0.00 75 1014.3
20260831064600 62 27 1.0 4.0 0.00 0.00 0.00 75 1014.4
20260831064054 62 36 1.0 4.0 0.00 0.00 0.00 75 1014.4
20260831063554 62 45 0.0 5.0 0.00 0.00 0.00 74 1014.4
20260831063115 63 32 0.0 5.0 0.00 0.00 0.00 74 1014.4
20260831062600 63 5 0.0 5.0 0.00 0.00 0.00 74 1014.4
20260831062055 63 40 1.0 5.0 0.00 0.00 0.00 74 1014.5
20260831061603 63 351 0.0 8.0 0.00 0.00 0.00 73 1014.4
20260831061055 63 5 1.0 8.0 0.00 0.00 0.00 73 1014.5
20260831060554 63 0 0.0 7.0 0.00 0.00 0.00 73 1014.5
20260831055555 63 343 0.0 4.0 0.00 0.00 0.00 73 1014.6
20260831055055 63 5 1.0 5.0 0.00 0.00 0.00 72 1014.6
20260831054603 63 26 0.0 5.0 0.00 0.00 0.00 72 1014.7
20260831054055 63 0 1.0 5.0 0.00 0.00 0.00 72 1014.7
20260831053554 63 5 0.0 5.0 0.00 0.00 0.00 72 1014.8
20260831053119 63 10 2.0 5.0 0.00 0.00 0.00 71 1014.8
20260831052556 63 36 0.0 5.0 0.00 0.00 0.00 71 1015.0
20260831052057 63 310 0.0 5.0 0.00 0.00 0.00 71 1015.0
20260831051559 63 0 0.0 3.0 0.00 0.00 0.00 71 1015.1
20260831051055 64 18 0.0 3.0 0.00 0.00 0.00 70 1015.1
20260831050555 64 0 0.0 3.0 0.00 0.00 0.00 70 1015.1
20260831050124 64 32 0.0 2.0 0.00 0.00 0.00 70 1015.2
20260831045555 64 0 0.0 3.0 0.00 0.00 0.00 69 1015.2
20260831045055 64 0 0.0 3.0 0.00 0.00 0.00 69 1015.2
20260831044601 64 5 0.0 2.0 0.00 0.00 0.00 69 1015.3
20260831044057 65 5 0.0 4.0 0.00 0.00 0.00 68 1015.3
20260831043554 65 0 0.0 4.0 0.00 0.00 0.00 68 1015.3
20260831043103 65 70 0.0 3.0 0.00 0.00 0.00 68 1015.3
20260831042557 65 21 0.0 4.0 0.00 0.00 0.00 68 1015.3
20260831042057 65 0 1.0 5.0 0.00 0.00 0.00 67 1015.3
20260831041620 65 20 1.0 6.0 0.00 0.00 0.00 67 1015.3
20260831041057 65 0 0.0 6.0 0.00 0.00 0.00 67 1015.3
20260831040557 65 28 0.0 5.0 0.00 0.00 0.00 67 1015.3
20260831040107 65 37 0.0 5.0 0.00 0.00 0.00 66 1015.3
20260831035555 65 70 1.0 5.0 0.00 0.00 0.00 66 1015.4
20260831035054 66 17 0.0 3.0 0.00 0.00 0.00 66 1015.5
20260831034605 66 0 0.0 2.0 0.00 0.00 0.00 65 1015.5
20260831034055 66 0 0.0 6.0 0.00 0.00 0.00 65 1015.5
20260831033555 66 0 0.0 6.0 0.00 0.00 0.00 64 1015.5
20260831033114 66 311 1.0 6.0 0.00 0.00 0.00 64 1015.5
20260831032555 67 11 0.0 2.0 0.00 0.00 0.00 63 1015.5
20260831032100 67 0 0.0 1.0 0.00 0.00 0.00 62 1015.5
20260831031601 67 0 0.0 2.0 0.00 0.00 0.00 62 1015.6
20260831031055 67 0 0.0 2.0 0.00 0.00 0.00 62 1015.6
20260831030555 67 40 0.0 4.0 0.00 0.00 0.00 61 1015.6
20260831030109 68 167 0.0 5.0 0.00 0.00 0.00 61 1015.5
20260831025555 68 0 1.0 5.0 0.00 0.00 0.00 60 1015.6
20260831025058 68 5 0.0 5.0 0.00 0.00 0.00 60 1015.6
20260831024604 68 0 1.0 5.0 0.00 0.00 0.00 59 1015.7
20260831024054 69 0 1.0 4.0 0.00 0.00 0.00 59 1015.6
20260831023555 69 0 1.0 4.0 0.00 0.00 0.00 58 1015.6
20260831023102 69 40 0.0 4.0 0.00 0.00 0.00 58 1015.6
20260831022555 69 18 1.0 4.0 0.00 0.00 0.00 57 1015.6
20260831022055 70 5 1.0 9.0 0.00 0.00 0.00 56 1015.7
20260831021559 70 5 2.0 9.0 0.00 0.00 0.00 55 1015.8
20260831021057 71 26 1.0 9.0 0.00 0.00 0.00 55 1015.9
20260831020555 71 0 1.0 8.0 0.00 0.00 0.00 55 1015.9
20260831015554 71 33 0.0 4.0 0.00 0.00 0.00 54 1016.0
20260831015055 72 16 2.0 9.0 0.00 0.00 0.00 54 1015.9
20260831014604 72 74 2.0 9.0 0.00 0.00 0.00 52 1016.0
20260831014055 72 360 2.0 9.0 0.00 0.00 0.00 52 1016.0
20260831013555 73 0 1.0 6.0 0.00 0.00 0.00 52 1016.0
20260831013101 73 0 2.0 6.0 0.00 0.00 0.00 52 1016.0
20260831012555 73 341 1.0 8.0 0.00 0.00 0.00 52 1016.1
20260831012055 73 53 2.0 8.0 0.00 0.00 0.00 51 1016.2
20260831011605 73 360 2.0 6.0 0.00 0.00 0.00 51 1016.2
20260831011054 73 321 1.0 6.0 0.00 0.00 0.00 51 1016.2
20260831010555 73 63 1.0 6.0 0.00 0.00 0.00 49 1016.3
20260831010113 73 0 2.0 8.0 0.00 0.00 0.00 50 1016.2
20260831005558 73 323 2.0 11.0 0.00 0.00 0.00 49 1016.3
20260831005056 73 337 2.0 11.0 0.00 0.00 0.00 49 1016.5
20260831004608 74 27 3.0 11.0 0.00 0.00 0.00 48 1016.5
20260831004056 74 325 2.0 11.0 0.00 0.00 0.00 49 1016.5